VNREDSAT 1

Last updated on Mon Sep 07 2026 00:02:45 GMT+0000 (Coordinated Universal Time)

1 39160U 13021B 26249.64974785 .00000371 00000+0 78069-4 0 9993 2 39160 97.9010 299.9009 0001357 77.8509 282.2847 14.64738854712213
UTC large
Height (km)
Speed (km/s)
/
Latitude / Longitude
Inclination (degrees)
Orbital Period (minutes)
Azimuth
Elevation
Range (km)
Doppler Factor

Next 0 passes for location: London (51.5072 / 0.1276)

No passes found over London.
VNREDSAT 1